Hourly Data Report for September 04, 2017

All times are specified in Local Standard Time (LST). Add 1 hour to adjust for Daylight Saving Time where and when it is observed.

SAINT JOHN A
NEW BRUNSWICK

45°18'58.000" N
65°53'24.000" W
108.80 m
8104901
71609
YSJ

Download Data

Hourly Data (September 2017)
Hourly Data Report for September 4, 2017
Temp Definition
°C
Dew Point Temp Definition
°C
Rel Hum Definition
%
Wind Dir Definition
10's deg

Wind Spd Definition
km/h
Visibility Definition
km
Stn Press Definition
kPa
Hmdx Definition


Wind Chill Definition


Weather Definition


TIME
00:00 Legend Double Dagger 12.6 12.0 96 10 29 3.2 99.47     Rain,Fog
01:00 Legend Double Dagger 13.1 12.3 95 11 31 3.2 99.30     Rain Showers
02:00 Legend Double Dagger 13.6 12.8 95 11 24 6.4 99.13     Fog
03:00 Legend Double Dagger 13.9 13.3 97 13 19 3.2 98.97     Rain Showers,Fog
04:00 Legend Double Dagger 14.8 14.5 98 17 26 2.4 98.90     Rain Showers,Fog
05:00 Legend Double Dagger 13.2 12.4 95 19 30 4.8 98.83     Drizzle,Fog
06:00 Legend Double Dagger 12.2 11.8 97 20 32 2.4 98.79     Rain,Fog
07:00 Legend Double Dagger 12.3 11.8 97 22 37 3.2 98.80     Rain,Fog
08:00 Legend Double Dagger 12.9 12.6 98 22 28 4.8 98.87     Rain,Fog
09:00 Legend Double Dagger 14.7 12.6 87 26 28 12.9 98.98     Rain
10:00 Legend Double Dagger 14.4 12.1 86 25 17 24.1 99.12     LegendNANA
11:00 Legend Double Dagger 15.4 11.7 78 28 21 24.1 99.20     Cloudy
12:00 Legend Double Dagger 16.2 11.2 72 27 26 24.1 99.29     LegendNANA
13:00 Legend Double Dagger 17.7 11.4 66 27 25 24.1 99.31     LegendNANA
14:00 Legend Double Dagger 19.3 12.2 63 27 21 24.1 99.31     Mostly Cloudy
15:00 Legend Double Dagger 18.5 13.0 70 22 14 24.1 99.37     LegendNANA
16:00 Legend Double Dagger 18.2 12.9 71 21 18 24.1 99.40     LegendNANA
17:00 Legend Double Dagger 17.7 12.4 71 22 20 24.1 99.45     Mainly Clear
18:00 Legend Double Dagger 16.3 12.2 77 22 23 24.1 99.51     LegendNANA
19:00 Legend Double Dagger 14.2 11.8 86 22 16 24.1 99.58     LegendNANA
20:00 Legend Double Dagger 13.8 11.7 87 22 13 24.1 99.65     Mainly Clear
21:00 Legend Double Dagger 13.4 11.7 89 20 19 24.1 99.68     LegendNANA
22:00 Legend Double Dagger 12.9 11.7 93 19 15 24.1 99.71     LegendNANA
23:00 Legend Double Dagger 12.7 12.0 95 18 10 24.1 99.67     Mainly Clear

Notes on Data Quality.

Legend

  • E = Estimated
  • M = Missing
  • NA = Not Available
  • ‡ = Partner data that is not subject to review by the National Climate Archives
Date modified: